• In Uzbekistan
  • List of Countries
  • For 7 days
  • Water Temperature
  • Satellite Maps
  • Weather Map
  • Weather Widgets
  • user-avatar
    Login

    Hourly Weather Havana

    Today, 19 October, Thursday

    Time Temperature Precipitation Wind Pressure Humidity
    00:00 +26°C° 0.6 mm 4 mps 760 mmHg 89%
    01:00 +26°C° 0 mm 4 mps 760 mmHg 89%
    02:00 +26°C° 0 mm 4 mps 760 mmHg 89%
    03:00 +26°C° 0 mm 4 mps 760 mmHg 89%
    04:00 +26°C° 0 mm 4 mps 760 mmHg 89%
    05:00 +26°C° 0.2 mm 4 mps 760 mmHg 88%
    06:00 +26°C° 0.2 mm 4 mps 760 mmHg 88%
    07:00 +27°C° 0.2 mm 4 mps 760 mmHg 88%
    08:00 +28°C° 0.8 mm 4 mps 760 mmHg 83%
    09:00 +29°C° 0.8 mm 4 mps 761 mmHg 77%
    10:00 +32°C° 0.8 mm 5 mps 761 mmHg 72%
    11:00 +32°C° 1.8 mm 5 mps 761 mmHg 72%
    12:00 +32°C° 1.8 mm 5 mps 760 mmHg 72%
    13:00 +33°C° 1.8 mm 4 mps 760 mmHg 72%
    14:00 +32°C° 1.6 mm 5 mps 760 mmHg 75%
    15:00 +32°C° 1.6 mm 5 mps 759 mmHg 77%
    16:00 +30°C° 1.6 mm 5 mps 759 mmHg 79%
    17:00 +29°C° 1 mm 5 mps 759 mmHg 82%
    18:00 +28°C° 1 mm 5 mps 759 mmHg 85%
    19:00 +27°C° 1 mm 5 mps 759 mmHg 89%
    20:00 +27°C° 0.5 mm 5 mps 760 mmHg 89%
    21:00 +27°C° 0.5 mm 5 mps 760 mmHg 89%
    22:00 +27°C° 0.5 mm 5 mps 760 mmHg 89%
    23:00 +27°C° 0.3 mm 5 mps 760 mmHg 90%

    Tomorrow, 20 October, Friday

    Time Temperature Precipitation Wind Pressure Humidity
    00:00 +27°C° 0.3 mm 5 mps 760 mmHg 90%
    01:00 +27°C° 0.3 mm 4 mps 760 mmHg 90%
    02:00 +27°C° 0.2 mm 4 mps 760 mmHg 90%
    03:00 +27°C° 0.2 mm 4 mps 759 mmHg 91%
    04:00 +26°C° 0.2 mm 4 mps 759 mmHg 91%
    05:00 +27°C° 0.2 mm 4 mps 759 mmHg 91%
    06:00 +27°C° 0.2 mm 4 mps 760 mmHg 91%
    07:00 +27°C° 0.2 mm 4 mps 760 mmHg 91%
    08:00 +28°C° 0 mm 4 mps 760 mmHg 85%
    09:00 +30°C° 0 mm 5 mps 760 mmHg 79%
    10:00 +32°C° 0 mm 5 mps 761 mmHg 73%
    11:00 +33°C° 0.2 mm 5 mps 760 mmHg 71%
    12:00 +33°C° 0.2 mm 5 mps 760 mmHg 69%
    13:00 +34°C° 0.2 mm 5 mps 759 mmHg 68%
    14:00 +33°C° 1.2 mm 5 mps 759 mmHg 71%
    15:00 +32°C° 1.2 mm 5 mps 758 mmHg 75%
    16:00 +32°C° 1.2 mm 6 mps 758 mmHg 78%
    17:00 +30°C° 0.9 mm 6 mps 758 mmHg 81%
    18:00 +29°C° 0.9 mm 6 mps 759 mmHg 85%
    19:00 +28°C° 0.9 mm 6 mps 759 mmHg 88%
    20:00 +28°C° 0.4 mm 6 mps 759 mmHg 89%
    21:00 +27°C° 0.4 mm 6 mps 760 mmHg 89%
    22:00 +27°C° 0.4 mm 6 mps 760 mmHg 90%
    23:00 +27°C° 1.1 mm 6 mps 760 mmHg 90%

    Day after tomorrow, 21 October, Saturday

    Time Temperature Precipitation Wind Pressure Humidity
    00:00 +27°C° 1.1 mm 5 mps 760 mmHg 90%
    01:00 +27°C° 1.1 mm 5 mps 760 mmHg 91%
    02:00 +27°C° 1 mm 5 mps 759 mmHg 91%
    03:00 +27°C° 1 mm 5 mps 759 mmHg 91%
    04:00 +27°C° 1 mm 5 mps 759 mmHg 91%
    05:00 +27°C° 0.5 mm 5 mps 759 mmHg 91%
    06:00 +27°C° 0.5 mm 5 mps 759 mmHg 92%
    07:00 +27°C° 0.5 mm 5 mps 760 mmHg 92%
    08:00 +28°C° 0.7 mm 5 mps 760 mmHg 88%
    09:00 +30°C° 0.7 mm 5 mps 761 mmHg 84%
    10:00 +32°C° 0.7 mm 6 mps 761 mmHg 80%
    11:00 +32°C° 1.2 mm 5 mps 761 mmHg 78%
    12:00 +33°C° 1.2 mm 5 mps 760 mmHg 77%
    13:00 +33°C° 1.2 mm 5 mps 760 mmHg 75%
    14:00 +32°C° 2.1 mm 5 mps 760 mmHg 79%
    15:00 +30°C° 2.1 mm 5 mps 759 mmHg 83%
    16:00 +29°C° 2.1 mm 5 mps 759 mmHg 87%
    17:00 +29°C° 1.5 mm 5 mps 759 mmHg 89%
    18:00 +28°C° 1.5 mm 4 mps 760 mmHg 90%
    19:00 +27°C° 1.5 mm 4 mps 760 mmHg 91%
    20:00 +27°C° 0.1 mm 4 mps 761 mmHg 91%
    21:00 +27°C° 0.1 mm 4 mps 761 mmHg 91%
    22:00 +27°C° 0.1 mm 4 mps 761 mmHg 91%
    23:00 +27°C° 0.1 mm 4 mps 761 mmHg 91%

    22 October, Sunday

    Time Temperature Precipitation Wind Pressure Humidity
    00:00 +27°C° 0.1 mm 4 mps 761 mmHg 91%
    01:00 +27°C° 0.1 mm 4 mps 761 mmHg 92%
    02:00 +26°C° 0.4 mm 4 mps 761 mmHg 92%
    03:00 +26°C° 0.4 mm 4 mps 760 mmHg 92%
    04:00 +26°C° 0.4 mm 5 mps 760 mmHg 92%
    05:00 +26°C° 0.1 mm 5 mps 761 mmHg 91%
    06:00 +26°C° 0.1 mm 5 mps 761 mmHg 91%
    07:00 +26°C° 0.1 mm 6 mps 761 mmHg 91%
    08:00 +27°C° 0 mm 6 mps 762 mmHg 86%
    09:00 +29°C° 0 mm 6 mps 762 mmHg 81%
    10:00 +30°C° 0 mm 7 mps 763 mmHg 76%
    11:00 +32°C° 0 mm 6 mps 762 mmHg 72%
    12:00 +33°C° 0 mm 6 mps 762 mmHg 68%
    13:00 +33°C° 0 mm 5 mps 761 mmHg 64%
    14:00 +33°C° 0 mm 5 mps 761 mmHg 66%
    15:00 +33°C° 0 mm 5 mps 761 mmHg 68%
    16:00 +33°C° 0 mm 5 mps 760 mmHg 70%
    17:00 +32°C° 0.1 mm 5 mps 761 mmHg 75%
    18:00 +29°C° 0.1 mm 5 mps 761 mmHg 79%
    19:00 +28°C° 0.1 mm 6 mps 761 mmHg 84%
    20:00 +28°C° 0 mm 6 mps 762 mmHg 85%
    21:00 +27°C° 0 mm 6 mps 762 mmHg 86%
    22:00 +27°C° 0 mm 6 mps 762 mmHg 86%
    23:00 +27°C° 0 mm 6 mps 762 mmHg 87%

    23 October, Monday

    Time Temperature Precipitation Wind Pressure Humidity
    00:00 +27°C° 0 mm 6 mps 762 mmHg 88%
    01:00 +26°C° 0 mm 5 mps 761 mmHg 88%
    02:00 +26°C° 0 mm 5 mps 761 mmHg 89%
    03:00 +26°C° 0 mm 5 mps 761 mmHg 90%
    04:00 +26°C° 0 mm 5 mps 760 mmHg 90%
    05:00 +26°C° 0 mm 5 mps 761 mmHg 91%
    06:00 +26°C° 0 mm 5 mps 761 mmHg 91%
    07:00 +26°C° 0 mm 5 mps 761 mmHg 92%
    08:00 +27°C° 0 mm 5 mps 761 mmHg 86%
    09:00 +29°C° 0 mm 5 mps 761 mmHg 80%
    10:00 +30°C° 0 mm 6 mps 762 mmHg 75%
    11:00 +32°C° 0 mm 5 mps 761 mmHg 71%
    12:00 +33°C° 0 mm 5 mps 760 mmHg 67%
    13:00 +33°C° 0 mm 4 mps 760 mmHg 64%
    14:00 +33°C° 0 mm 3 mps 759 mmHg 65%
    15:00 +33°C° 0 mm 3 mps 759 mmHg 67%
    16:00 +32°C° 0 mm 2 mps 758 mmHg 68%
    17:00 +30°C° 0.1 mm 3 mps 758 mmHg 73%
    18:00 +29°C° 0.1 mm 3 mps 759 mmHg 78%
    19:00 +28°C° 0.1 mm 3 mps 759 mmHg 83%
    20:00 +27°C° 0.1 mm 3 mps 759 mmHg 84%
    21:00 +27°C° 0.1 mm 3 mps 759 mmHg 86%
    22:00 +27°C° 0.1 mm 3 mps 760 mmHg 87%
    23:00 +27°C° 0 mm 3 mps 759 mmHg 88%

    24 October, Tuesday

    Time Temperature Precipitation Wind Pressure Humidity
    00:00 +26°C° 0 mm 3 mps 759 mmHg 90%
    01:00 +26°C° 0 mm 3 mps 759 mmHg 91%
    02:00 +26°C° 0 mm 2 mps 758 mmHg 91%
    03:00 +26°C° 0 mm 2 mps 758 mmHg 92%
    04:00 +25°C° 0 mm 2 mps 758 mmHg 93%
    05:00 +25°C° 0 mm 1 mps 758 mmHg 93%
    06:00 +26°C° 0 mm 1 mps 759 mmHg 92%
    07:00 +26°C° 0 mm 1 mps 759 mmHg 92%
    08:00 +27°C° 0 mm 1 mps 759 mmHg 85%
    09:00 +29°C° 0 mm 1 mps 759 mmHg 77%
    10:00 +31°C° 0 mm 1 mps 759 mmHg 70%
    11:00 +31°C° 0 mm 1 mps 759 mmHg 67%
    12:00 +32°C° 0 mm 2 mps 758 mmHg 64%
    13:00 +32°C° 0 mm 2 mps 758 mmHg 62%
    14:00 +32°C° 0.3 mm 2 mps 757 mmHg 65%
    15:00 +32°C° 0.3 mm 2 mps 757 mmHg 68%
    16:00 +31°C° 0.3 mm 3 mps 757 mmHg 71%
    17:00 +30°C° 0.6 mm 2 mps 757 mmHg 76%
    18:00 +28°C° 0.6 mm 2 mps 757 mmHg 81%
    19:00 +27°C° 0.6 mm 2 mps 758 mmHg 86%
    20:00 +27°C° 0.2 mm 1 mps 758 mmHg 86%
    21:00 +27°C° 0.2 mm 1 mps 758 mmHg 86%
    22:00 +27°C° 0.2 mm 1 mps 759 mmHg 86%
    23:00 +26°C° 0 mm 1 mps 758 mmHg 87%
    Show more